Lapse_Rate
7.0 7.4 7.5 7.3 7.4 7.2 7.0 6.7 6.4 7.1 7.3 6.8 7.7 7.6 8.0 7.9 7.9 8.2 8.1 7.7 7.5 7.7 7.4 7.3 7.3 7.0 7.0 6.9 7.0 6.9 7.1 7.1 7.1 6.9 6.7 7.1 7.0 6.1 5.4 6.0 6.0 5.9 5.6 5.5
6.8 7.0 7.3 7.4 7.1 7.0 7.6 7.9 7.8 7.7 7.5 8.0 7.9 7.4 7.2 7.2 7.5 7.7 7.9 7.8 7.8 8.0 7.8 7.6 7.5 7.5 7.4 7.4 7.2 7.2 7.3 7.4 7.5 7.4 7.5 7.4 7.5 6.3 6.3 6.4 6.5 6.7 6.2 5.7
6.6 6.7 7.3 7.2 7.2 7.8 8.0 7.8 7.9 7.8 7.8 7.6 7.3 6.9 7.1 7.2 7.4 7.7 8.0 7.9 7.9 7.9 8.0 7.9 7.7 7.7 7.6 7.9 8.1 8.1 8.1 8.0 8.1 8.0 8.1 7.7 7.0 6.0 5.7 5.7 6.1 6.0 5.8 5.6
6.2 6.1 5.1 7.0 7.1 7.1 8.0 8.2 8.0 8.0 7.8 7.7 7.5 7.3 7.2 7.2 7.2 7.4 7.6 7.6 7.6 7.5 7.6 7.7 7.5 8.0 8.2 8.4 8.2 8.2 8.2 8.1 8.3 8.4 8.2 8.0 7.0 5.5 5.5 5.5 5.8 6.0 5.4 5.2
6.5 6.5 6.9 7.0 6.7 7.4 7.6 7.5 7.6 7.4 7.5 7.4 7.3 7.2 7.1 6.9 6.8 6.8 6.9 7.2 7.4 7.3 7.3 7.5 7.9 8.2 8.3 8.3 8.4 8.3 8.1 8.2 8.3 8.4 8.1 7.8 7.0 5.7 5.6 5.5 5.3 5.2 5.2 5.1
6.6 6.7 5.8 7.0 6.7 7.0 7.4 7.1 7.0 7.3 7.3 7.3 7.3 7.1 7.1 7.1 7.0 7.1 7.4 7.4 7.4 7.7 8.0 8.0 8.1 8.0 8.3 8.2 8.3 8.2 8.3 8.2 8.3 8.4 8.3 7.6 7.2 6.5 5.2 5.0 5.2 5.0 4.9 4.7
7.0 7.1 6.8 6.7 6.8 7.5 7.5 7.1 7.4 7.2 6.9 6.9 7.0 6.8 6.9 7.1 7.4 7.6 7.5 7.4 7.3 7.8 7.9 7.9 8.1 8.3 8.2 8.4 8.4 8.4 8.2 8.1 8.0 8.2 8.1 7.6 7.0 6.5 5.5 5.2 5.2 4.9 4.8 4.8
7.3 7.1 6.3 6.7 7.4 7.0 7.5 7.3 7.3 6.8 6.7 6.7 6.7 6.8 6.9 7.0 7.1 7.3 7.5 7.4 7.6 7.5 7.7 7.8 7.9 8.3 8.4 8.6 8.5 8.5 8.3 8.1 7.8 7.5 7.4 7.5 6.8 6.3 5.9 5.5 5.4 5.3 5.1 4.6
7.5 7.4 7.7 7.3 7.0 7.0 7.0 7.1 7.2 6.9 6.7 6.6 6.9 7.2 7.3 7.3 7.3 7.4 7.3 7.1 7.6 7.8 7.7 8.0 8.1 8.3 8.5 8.5 8.4 8.3 8.2 7.9 7.6 7.4 7.1 7.2 6.2 6.1 6.0 5.5 5.3 5.0 4.9 4.9
7.4 7.1 7.0 6.9 6.8 6.8 7.0 7.1 7.2 7.3 7.0 6.8 6.7 7.1 7.5 7.4 7.6 7.6 7.6 7.3 7.4 7.8 7.9 7.9 8.1 8.3 8.6 8.2 8.2 8.0 7.9 7.5 7.4 7.3 7.0 6.9 6.2 5.7 5.9 5.5 5.4 5.2 5.2 5.2
7.3 7.2 7.4 7.4 7.4 7.4 7.3 7.2 7.1 7.1 7.1 6.9 7.1 7.3 7.6 7.8 7.9 7.9 8.0 7.5 7.6 7.6 7.6 7.7 7.8 8.2 8.0 8.0 7.8 7.7 7.6 7.6 7.6 7.2 7.3 7.0 6.6 5.9 5.6 5.2 5.5 5.3 5.1 5.0
6.8 7.2 7.1 7.0 7.3 7.4 7.3 7.2 7.2 7.1 7.0 6.9 6.9 7.0 7.4 7.6 7.7 8.0 8.1 7.9 7.7 7.5 7.7 7.4 7.4 7.6 7.7 8.0 7.6 7.4 7.6 7.5 7.5 7.5 7.5 7.2 6.6 6.1 5.4 5.3 5.5 5.4 5.3 5.4
6.7 6.8 6.6 6.4 6.3 6.5 6.7 7.0 7.2 7.3 7.2 7.2 7.1 7.2 7.8 7.6 7.7 7.7 7.7 7.1 7.3 7.7 7.5 7.3 7.5 7.7 7.6 7.5 7.5 7.2 7.1 7.3 7.1 7.1 7.3 7.2 6.7 6.2 5.5 5.5 5.5 5.7 5.5 6.0
6.3 6.2 6.3 6.6 6.6 6.8 6.7 6.9 7.4 7.2 7.1 7.2 7.3 7.8 7.9 7.7 7.5 7.4 7.4 7.2 7.2 7.7 7.5 7.3 7.3 7.3 7.5 7.6 7.2 7.1 7.0 7.2 6.9 6.9 7.1 6.9 6.5 6.4 6.2 5.8 5.7 5.8 5.9 6.1
7.1 7.1 7.0 6.7 6.8 7.1 7.2 7.1 6.9 6.6 6.7 6.9 7.1 7.5 7.5 7.4 7.3 7.3 6.9 7.3 7.3 7.2 7.1 7.1 7.2 7.4 7.5 7.3 7.1 7.1 7.1 7.0 6.9 6.9 6.8 6.8 6.8 6.8 6.7 6.3 6.2 6.2 6.2 6.3
7.1 7.1 6.8 6.6 6.5 6.6 6.9 7.1 6.8 6.9 6.9 7.0 7.0 7.2 7.0 6.8 7.2 7.2 7.2 7.3 7.2 7.1 7.2 7.3 7.4 7.3 7.1 7.0 7.1 7.2 7.2 7.0 6.8 6.8 6.8 6.7 6.7 6.6 6.6 6.6 6.5 6.5 6.5 6.4
6.6 6.8 7.0 6.9 6.9 6.7 6.7 7.0 7.3 7.2 6.7 7.0 6.9 7.0 6.7 7.1 7.4 7.0 7.1 7.0 7.1 7.4 7.4 7.3 7.1 6.9 7.0 7.1 7.1 7.2 7.2 7.0 6.8 6.7 6.6 6.6 6.6 6.5 6.5 6.4 6.3 6.2 6.1 5.9
7.2 7.3 7.3 7.3 7.3 7.1 7.3 7.1 7.1 6.8 6.8 6.9 6.8 7.0 7.0 6.9 6.8 7.1 7.2 7.4 7.5 7.4 7.3 7.1 6.8 7.1 7.1 7.0 7.0 6.9 7.0 6.9 6.8 6.7 6.6 6.6 6.6 6.6 6.5 6.4 6.3 6.1 6.0 5.8
7.5 7.3 7.4 7.4 7.2 7.3 7.1 6.8 6.8 6.9 7.2 7.3 7.2 7.1 7.0 7.0 7.2 7.3 7.5 7.6 7.7 7.5 7.1 7.2 7.3 7.3 7.1 6.9 6.7 6.7 6.6 6.5 6.5 6.5 6.5 6.4 6.3 6.2 6.1 6.0 5.8 5.7 5.6 5.4
7.4 7.2 7.2 7.2 7.2 7.3 7.1 7.1 6.8 6.8 6.9 7.0 7.0 7.1 7.2 7.4 7.7 7.8 7.7 7.6 7.5 7.2 7.4 7.5 7.4 7.3 7.2 7.0 6.8 6.7 6.6 6.6 6.6 6.6 6.5 6.4 6.4 6.3 6.3 6.1 6.0 5.8 5.8 5.8
7.3 7.2 7.2 7.2 7.2 6.8 6.4 6.6 6.5 6.6 6.8 6.8 6.8 7.0 7.3 7.6 7.8 7.9 7.9 7.6 7.3 7.4 7.6 7.5 7.3 7.2 7.0 6.9 6.9 6.8 6.8 6.7 6.6 6.5 6.4 6.3 6.2 6.1 6.1 6.1 6.1 6.1 6.2 6.2
7.2 7.1 7.1 7.0 6.7 6.6 6.6 6.7 6.9 7.0 7.0 7.1 7.3 7.3 7.4 7.4 7.6 7.7 7.6 7.6 7.6 7.6 7.5 7.3 7.1 7.0 6.9 6.8 6.8 6.8 6.8 6.7 6.5 6.4 6.3 6.1 6.0 5.9 6.0 6.1 6.1 6.1 6.2 6.2
7.5 7.4 7.4 7.3 7.2 7.2 7.1 7.2 7.3 7.2 7.3 7.4 7.4 7.4 7.4 7.5 7.7 7.8 7.7 7.7 7.6 7.5 7.4 7.2 7.1 7.0 6.9 6.9 6.9 6.8 6.7 6.6 6.4 6.3 6.1 6.1 6.0 6.0 6.2 6.3 6.2 6.1 6.1 6.1
7.9 7.9 7.9 7.8 7.5 7.5 7.4 7.3 7.2 7.3 7.3 7.4 7.5 7.4 7.5 7.6 7.7 7.7 7.6 7.6 7.5 7.4 7.2 7.1 7.1 7.0 7.0 6.9 6.8 6.7 6.6 6.5 6.4 6.3 6.2 6.0 5.9 5.9 6.1 6.1 6.1 6.1 6.2 5.9
8.0 8.0 8.0 7.8 7.5 7.3 7.2 7.2 7.3 7.3 7.2 7.3 7.4 7.3 7.5 7.6 7.6 7.6 7.5 7.4 7.3 7.2 7.2 7.2 7.1 7.1 7.0 6.8 6.8 6.6 6.5 6.5 6.4 6.3 6.2 6.1 6.1 6.1 6.2 6.2 6.3 6.4 6.3 6.0
7.8 7.9 7.8 7.7 7.5 7.4 7.3 7.2 7.1 7.1 7.1 7.2 7.3 7.3 7.5 7.5 7.6 7.5 7.4 7.3 7.2 7.1 7.2 7.2 7.1 7.0 6.8 6.7 6.6 6.6 6.5 6.5 6.4 6.4 6.3 6.3 6.3 6.4 6.4 6.4 6.3 6.3 6.3 6.2
7.9 7.9 7.9 7.6 7.3 7.2 7.0 6.8 6.8 6.9 7.1 7.2 7.3 7.4 7.4 7.5 7.5 7.4 7.3 7.2 7.1 7.1 7.1 7.1 7.1 6.9 6.7 6.6 6.6 6.6 6.6 6.6 6.6 6.6 6.5 6.4 6.4 6.4 6.4 6.4 6.3 6.3 6.1 6.0
Wind_Speed
4 4 3 1 3 5 2 3 5 6 9 17 4 8 7 7 8 8 8 6 11 7 5 6 5 5 5 5 6 6 6 6 7 3 4 6 7 7 8 9 8 8 9 9
2 3 3 4 5 4 7 7 7 7 14 11 11 5 7 9 9 9 5 8 8 7 7 7 7 7 5 2 2 1 5 5 5 6 7 8 7 9 10 11 11 11 9 9
2 1 4 6 5 8 4 4 5 5 11 10 8 7 6 7 5 3 7 6 5 5 3 1 0 2 1 1 3 3 3 3 5 6 6 7 9 9 10 11 11 10 9 8
3 3 2 5 0 3 4 7 2 6 6 2 2 2 4 6 6 7 6 5 3 2 2 3 3 1 1 2 2 1 2 4 5 6 7 7 7 7 6 7 9 8 7 7
5 4 4 8 6 5 3 4 2 3 1 2 3 3 3 2 4 4 3 2 1 2 1 3 4 5 3 2 2 4 3 4 5 6 7 8 9 8 7 7 7 7 8 9
3 4 8 4 3 6 4 8 3 2 2 3 3 3 4 3 3 3 1 1 3 3 2 0 2 3 2 3 4 3 3 4 4 7 9 9 10 9 6 8 8 7 8 7
3 4 6 7 4 4 4 7 5 5 5 2 1 4 4 4 6 4 3 3 4 3 4 2 1 3 3 3 2 2 4 6 5 6 7 8 7 8 8 9 9 8 9 6
3 3 9 6 3 9 7 4 6 5 4 2 3 5 6 8 6 5 4 1 3 3 3 3 2 4 1 1 3 3 5 5 5 6 6 6 9 7 9 9 9 8 8 7
8 7 5 4 5 1 5 6 4 3 3 4 5 6 6 4 4 7 7 5 3 5 3 2 2 2 1 2 4 5 6 6 5 6 6 7 8 8 8 7 8 7 6 6
2 3 5 5 1 4 5 5 3 3 3 3 4 3 5 3 4 6 5 4 3 4 3 3 2 1 1 4 5 6 7 7 6 6 6 5 5 5 6 6 7 7 6 6
4 4 5 5 6 4 3 4 5 2 4 6 5 4 6 5 8 8 6 4 3 4 3 1 1 3 2 4 6 6 6 6 6 6 6 6 4 4 4 5 6 7 5 6
9 6 4 5 3 2 3 4 6 7 7 6 7 6 6 6 8 8 6 4 6 4 1 2 1 1 3 6 8 8 7 5 5 6 6 5 6 6 7 10 10 11 15 10
11 6 8 11 10 12 12 9 8 7 7 6 5 4 6 5 5 6 6 6 4 4 2 1 1 2 4 6 7 7 6 6 5 6 6 6 6 6 5 5 9 11 14 14
12 6 7 7 7 6 6 7 8 7 8 6 6 6 6 7 6 8 6 5 6 5 3 2 2 3 4 6 6 5 6 9 6 5 5 6 6 6 5 4 3 5 13 12
15 14 16 14 11 10 5 4 5 7 6 5 5 6 7 9 7 6 7 6 6 5 3 2 2 2 4 5 5 6 6 5 5 4 5 7 6 6 5 5 4 4 6 7
12 13 14 12 12 5 4 4 7 7 8 7 8 7 4 9 9 6 6 6 4 3 3 3 3 2 3 5 6 4 4 7 6 5 6 6 6 5 5 4 4 4 4 2
5 7 7 6 3 10 14 12 13 10 2 6 6 12 12 11 8 6 6 5 5 4 4 4 3 3 4 7 7 4 5 5 6 6 6 6 6 6 5 5 4 3 2 2
11 8 6 6 7 13 10 8 7 5 8 8 7 9 10 8 8 7 6 5 5 5 3 3 4 4 6 6 5 5 6 6 5 5 5 5 5 5 5 5 5 5 3 3
3 7 8 11 9 8 5 4 4 6 10 12 11 8 7 7 8 7 6 5 4 4 3 4 5 5 5 5 6 5 7 8 5 5 5 6 5 5 4 4 4 4 5 5
9 6 4 2 4 4 8 8 9 8 7 11 11 9 8 7 8 7 5 5 4 3 5 5 4 5 5 6 5 4 5 5 5 5 5 5 5 4 5 6 6 6 6 6
7 6 6 6 8 7 7 8 10 10 6 7 9 8 8 7 6 7 6 3 2 5 6 6 4 3 4 4 4 4 4 4 4 4 4 4 4 4 4 4 6 6 6 6
4 4 5 6 6 8 6 6 7 8 8 8 7 7 8 7 6 3 2 4 3 6 4 4 4 6 5 5 4 5 5 4 4 4 4 4 4 4 4 4 4 4 4 4
4 3 4 5 5 5 7 6 6 7 7 7 7 7 6 4 4 5 4 4 4 5 4 3 6 7 6 3 3 4 4 4 4 3 4 4 4 4 4 4 4 4 4 4
2 3 3 4 5 6 7 5 6 6 5 6 8 5 6 3 2 1 2 6 7 7 4 5 6 7 4 3 3 3 4 4 4 3 3 5 4 3 3 4 4 4 3 4
3 2 2 3 4 4 5 6 6 5 5 5 6 6 5 1 3 4 3 4 7 4 4 6 6 8 3 3 3 4 3 4 4 4 4 3 3 4 3 4 4 4 4 4
3 3 3 3 4 3 4 5 4 3 3 3 3 4 4 3 5 4 3 4 3 4 3 3 4 3 3 3 3 4 3 3 4 3 4 4 3 3 3 3 3 4 4 4
1 2 2 2 3 4 4 5 4 4 4 4 3 3 4 4 4 4 5 3 2 2 2 2 3 3 3 3 3 3 3 3 4 4 4 4 3 3 4 4 4 7 9 10
Wind_Direction
82 101 85 141 253 99 100 157 176 240 227 272 244 244 244 244 244 249 254 194 166 179 165 173 167 175 185 185 202 220 220 217 227 174 135 148 147 144 127 124 114 109 97 95
111 177 158 262 240 166 213 245 250 267 272 277 294 253 281 284 283 265 197 164 173 177 180 182 190 202 199 188 275 308 270 253 160 154 150 142 133 130 122 123 122 119 123 128
273 208 55 311 266 207 170 209 199 240 260 281 294 349 344 324 352 8 104 80 103 116 104 29 67 316 307 343 344 331 287 189 157 143 140 145 136 135 140 135 134 138 130 123
130 101 226 234 61 229 214 260 323 280 306 36 300 65 55 32 58 54 71 96 90 49 19 28 320 104 242 27 353 78 138 152 139 138 139 130 122 130 130 134 133 128 120 110
156 198 312 278 189 200 132 285 215 159 300 276 315 140 36 50 79 90 43 53 85 83 25 0 356 354 360 338 103 110 143 136 127 129 122 124 121 123 117 119 115 121 121 118
160 167 204 242 127 99 102 272 143 149 10 360 24 38 258 221 203 178 114 333 187 156 122 92 31 352 356 3 73 104 133 127 131 137 141 137 134 136 131 125 122 119 114 116
147 206 275 225 187 63 169 244 188 170 167 152 149 209 239 242 247 209 197 225 172 161 124 207 74 53 6 56 53 104 122 126 140 142 138 130 123 127 125 125 121 122 120 99
98 169 261 192 212 170 203 202 183 193 179 177 221 236 231 250 256 267 291 314 152 197 134 194 99 90 38 62 111 128 124 124 135 128 122 126 125 126 127 130 125 128 123 105
183 209 212 207 180 165 176 200 194 173 223 160 175 212 231 249 315 299 304 306 272 184 205 222 183 142 142 132 148 143 129 125 129 123 129 132 133 135 128 134 133 136 140 133
99 252 211 224 232 184 201 182 154 206 224 224 220 231 232 234 241 257 258 286 271 167 206 255 300 230 110 148 154 143 136 136 138 137 128 124 127 136 137 144 139 142 144 139
267 266 277 252 208 194 172 159 168 201 245 253 178 208 211 213 229 227 227 207 191 210 232 171 357 42 107 149 138 136 135 142 139 140 131 122 114 126 141 136 153 147 150 150
251 201 215 237 244 195 226 252 238 219 234 199 173 196 203 214 205 200 206 204 120 113 89 15 329 97 150 153 151 153 149 149 146 142 132 125 126 113 116 124 142 139 158 161
251 196 235 257 252 256 260 256 256 253 231 186 210 208 201 190 198 187 182 150 114 139 120 149 222 203 171 153 156 158 149 140 140 141 140 138 140 133 135 159 186 182 172 169
240 238 262 249 249 223 222 240 232 214 203 198 200 220 186 181 164 164 168 158 134 133 126 187 193 190 155 150 151 140 135 145 144 139 138 127 130 121 121 136 153 189 179 167
240 238 252 261 263 262 222 220 233 241 187 193 210 202 173 172 158 143 129 127 121 114 122 150 164 180 177 152 135 142 133 136 133 131 132 129 126 116 112 112 111 107 138 152
238 240 248 244 244 223 232 261 241 222 199 213 207 195 173 128 122 123 112 115 118 158 164 153 187 201 180 160 137 125 122 138 138 137 138 135 134 129 124 119 110 99 104 108
223 254 236 190 266 313 306 305 267 241 215 311 177 139 131 119 117 117 101 102 121 128 141 156 179 177 164 142 144 135 130 146 140 136 146 146 142 142 141 137 133 111 100 71
212 222 185 209 215 264 261 247 242 213 190 169 126 123 123 129 132 123 123 116 111 91 100 152 150 150 134 135 133 134 153 158 152 149 141 141 144 143 145 145 143 147 130 119
190 219 203 237 236 238 220 179 126 106 123 129 130 130 121 118 126 125 124 121 124 145 187 139 144 122 124 131 153 138 155 157 143 138 141 140 144 144 139 136 136 134 142 150
49 51 37 45 58 93 110 112 107 94 98 114 117 116 120 125 129 136 144 164 179 184 147 136 132 116 119 132 123 122 131 129 133 131 137 141 143 144 153 155 160 157 158 170
34 33 34 51 71 77 91 109 114 116 108 103 121 133 139 131 129 133 134 136 155 145 138 138 127 114 116 121 112 113 119 118 122 133 134 138 135 142 144 142 156 159 166 175
25 39 49 55 75 84 88 99 110 115 116 123 118 127 134 132 137 113 97 150 160 148 128 126 130 131 132 124 122 128 130 125 129 125 129 138 141 147 156 151 154 163 168 170
52 54 64 69 80 85 89 100 110 119 123 139 139 136 139 138 138 140 151 160 149 154 136 137 146 139 143 123 122 131 128 128 142 150 145 153 158 160 162 173 170 162 164 172
40 64 76 93 93 97 101 99 100 95 115 145 148 131 140 127 79 131 155 154 150 156 153 153 155 148 136 138 138 134 136 141 156 161 157 159 163 168 162 167 172 179 165 165
87 96 95 109 112 115 119 121 116 132 149 143 153 168 159 143 144 151 132 137 145 142 144 159 157 150 136 134 136 148 151 155 172 157 167 169 172 178 173 164 172 173 167 169
166 156 185 192 161 157 148 150 142 137 114 105 102 109 105 104 116 123 117 117 122 128 114 136 145 139 144 151 160 156 155 154 151 158 156 158 151 147 151 153 160 163 168 172
224 183 140 118 150 162 161 151 151 160 157 146 126 122 123 118 119 121 121 116 111 119 115 123 147 153 146 154 153 153 146 143 146 147 143 141 139 144 147 152 151 154 154 152